GFSGBSN_700_spd_108.txt.gz
Wind_Speed
16 14 13 12 12 13 14 15 16 17 18 18 20 21 23 25 26 28 30 32 33 34 37 40 44 47 48 47 45 35 36 26 19 20 20 26 34 36 37 26 30 36 32 29 34 38 36
17 15 13 12 13 13 15 16 17 17 18 19 21 23 25 27 30 32 33 34 35 36 39 42 43 46 50 58 42 37 38 35 34 36 32 23 24 33 30 32 30 24 25 33 30 32 35
17 15 13 12 12 13 15 16 17 19 19 21 22 25 27 29 31 34 35 37 38 39 41 42 44 49 54 60 50 39 30 22 27 34 36 36 30 24 29 25 28 29 32 25 24 23 30
16 14 12 12 12 13 15 16 17 19 20 22 23 26 28 33 36 38 39 41 42 44 47 48 47 49 58 58 57 47 40 43 39 37 31 32 33 32 26 21 19 21 27 33 29 28 30
15 13 12 11 12 13 14 16 18 19 21 23 25 28 32 34 36 38 40 42 44 48 53 54 55 46 55 56 53 45 45 46 41 41 38 31 35 37 26 28 22 27 29 25 22 22 18
14 13 12 11 12 12 13 16 18 20 22 24 25 29 33 35 36 38 41 43 45 50 54 52 41 39 40 24 15 21 31 40 42 45 39 36 35 33 32 30 42 29 22 23 18 10 16
14 12 11 11 11 11 13 16 19 21 23 24 27 31 33 34 35 38 42 45 47 47 52 46 49 46 46 31 34 23 23 18 18 30 41 43 33 44 46 37 30 26 19 22 20 16 21
13 12 11 11 10 11 14 16 18 21 23 25 29 32 32 33 34 37 38 40 42 43 56 46 38 36 34 34 33 31 23 22 28 27 27 32 51 39 24 31 28 27 27 29 22 16 17
13 12 11 10 9 12 14 17 19 21 24 26 29 30 31 31 32 34 35 38 38 37 43 30 26 23 22 24 40 25 19 20 22 23 33 34 27 33 29 23 24 26 34 38 25 18 21
14 11 12 9 9 12 14 17 19 21 23 26 29 28 29 29 30 31 33 36 33 27 24 16 31 13 19 12 25 32 29 17 19 24 24 22 17 20 31 30 33 31 27 22 19 15 23
12 13 11 9 10 12 14 17 19 21 23 26 27 26 25 27 26 29 30 31 22 15 6 24 32 25 20 10 4 20 27 22 19 17 19 16 21 20 23 24 24 22 21 21 20 23 21
16 13 11 10 11 12 15 17 19 22 23 26 25 23 22 24 24 26 25 17 12 6 5 19 33 46 19 3 3 5 22 34 21 18 14 10 11 19 24 24 24 13 11 10 10 14 15
15 14 12 11 11 12 14 16 19 21 22 24 23 20 21 22 21 22 17 13 6 6 18 23 36 37 23 4 3 4 16 20 20 24 22 16 13 11 15 17 14 16 20 8 8 8 10
17 14 13 11 11 13 14 16 18 20 22 23 21 17 19 19 19 18 14 7 3 9 13 25 28 31 22 15 10 12 17 14 11 16 18 21 18 20 17 14 16 28 25 10 8 9 11
17 15 11 11 11 13 14 16 18 20 22 20 19 15 16 16 15 14 9 1 4 9 17 22 24 22 30 28 12 10 13 7 5 10 6 21 17 14 22 21 17 18 23 16 7 0 3
18 14 11 11 12 12 14 15 17 20 20 17 15 12 13 12 12 10 7 1 4 9 18 15 15 14 21 30 27 13 8 8 4 6 7 5 11 12 12 16 26 16 19 15 15 6 8
17 14 12 12 11 12 14 14 16 18 18 15 13 8 8 8 9 9 8 5 5 9 13 11 13 15 16 19 17 16 15 12 4 8 7 8 5 12 11 9 20 26 19 17 14 15 4
17 15 14 13 11 12 14 13 15 15 14 13 11 5 8 5 5 6 7 10 6 6 9 8 11 13 14 20 15 13 16 15 16 5 5 7 7 12 10 12 12 17 22 19 14 11 18
18 17 16 14 11 13 14 12 13 11 10 9 9 5 6 4 2 5 5 9 6 4 7 10 10 13 17 14 8 12 15 12 14 7 4 7 4 10 8 9 10 12 15 20 18 13 13
20 20 18 14 13 14 14 11 11 9 6 5 8 6 6 7 4 4 4 5 7 5 4 9 9 12 15 8 12 11 15 13 14 10 1 3 4 3 2 5 8 11 13 14 16 14 13
23 22 17 16 16 15 13 12 9 7 5 3 5 6 7 4 3 2 1 3 5 6 5 8 6 13 15 9 10 11 14 14 10 5 5 1 3 7 7 7 8 6 8 11 13 15 10
25 23 18 19 18 14 13 12 9 8 5 5 2 2 4 7 5 3 2 3 3 4 8 6 7 11 11 12 11 19 17 13 7 7 4 1 1 5 6 8 8 11 13 14 13 11 11
24 23 23 21 18 16 15 14 14 10 7 6 5 2 3 3 5 5 3 5 5 9 6 7 10 14 10 10 15 17 17 15 13 11 9 1 2 3 1 3 5 10 16 16 13 11 9
27 27 25 21 20 18 16 16 15 13 10 9 7 5 6 4 4 5 6 6 8 10 14 11 13 14 13 14 19 16 10 8 9 12 11 7 3 3 2 3 5 2 5 11 12 7 3
26 27 25 24 23 20 19 18 17 15 14 12 10 8 9 9 7 7 7 8 9 10 12 12 10 13 13 14 16 9 3 1 6 11 10 9 6 4 3 6 4 4 4 8 9 4 5
28 28 27 25 24 23 22 19 18 17 15 14 11 10 11 13 7 4 8 9 7 7 7 8 9 11 10 12 10 7 3 5 1 2 7 9 11 8 3 4 2 2 2 9 5 4 4
28 28 26 25 26 25 23 21 19 19 17 13 10 7 12 16 10 11 9 7 9 8 9 10 8 8 9 9 6 5 3 5 3 4 1 1 3 11 11 6 3 5 7 3 5 4 6
27 29 27 27 27 26 25 23 21 20 20 13 11 11 11 19 16 19 17 14 10 10 11 11 10 6 4 3 5 5 3 4 3 5 4 5 4 2 4 4 4 5 4 4 2 2 5
28 28 28 28 28 28 26 24 22 21 23 16 17 15 12 18 22 17 13 9 10 13 16 12 9 7 2 2 6 5 7 6 6 2 5 2 9 7 4 4 11 8 5 5 6 5 5

GFSGBSN_700_spd_111.txt.gz
Wind_Speed
27 24 21 19 16 15 15 15 14 14 15 17 18 20 20 21 22 23 25 27 29 30 31 34 36 39 41 43 47 35 40 39 36 34 26 22 29 31 38 33 33 42 36 35 30 30 33
26 23 21 18 17 15 14 14 14 15 16 18 19 19 20 21 23 26 28 29 29 30 33 35 39 41 46 55 43 41 41 35 35 38 36 31 24 26 30 34 34 34 36 36 34 31 27
24 22 20 18 16 14 14 14 14 15 16 17 18 19 21 22 25 29 29 30 30 32 36 39 43 46 53 55 51 47 44 42 38 30 41 40 30 25 24 31 30 37 37 31 34 32 36
25 22 20 18 16 15 14 13 14 14 15 16 18 20 22 24 27 30 32 33 34 37 40 43 44 46 56 57 55 49 35 42 42 42 36 35 26 32 31 20 27 24 34 42 41 31 26
23 21 19 17 16 15 13 12 12 13 14 16 18 20 22 26 30 32 31 33 35 39 43 41 43 46 54 41 45 37 29 34 42 48 49 39 33 35 27 33 29 34 40 40 34 32 32
24 21 19 17 15 13 12 11 11 12 13 16 19 21 24 27 29 30 31 33 37 42 48 45 39 35 30 34 30 34 29 18 32 33 38 47 38 32 34 39 48 47 36 34 33 26 32
23 21 19 17 14 12 11 10 10 11 14 17 19 21 23 25 28 29 32 38 37 30 36 42 31 24 29 32 32 39 32 23 24 35 43 46 43 45 55 48 44 41 22 31 25 28 20
23 21 18 16 13 11 9 8 9 12 14 17 18 20 23 24 26 28 32 33 36 39 51 29 20 15 27 30 40 37 26 31 22 34 37 36 48 58 39 36 38 35 31 32 29 20 18
23 21 17 14 12 10 7 8 9 11 14 16 19 21 22 23 24 28 30 30 34 36 31 19 11 26 37 46 39 32 25 31 20 29 34 46 50 40 36 36 37 37 37 34 28 20 21
22 17 16 13 11 9 8 8 10 12 14 17 18 20 21 21 24 24 25 28 28 25 17 8 20 29 47 28 20 19 23 21 19 23 27 34 33 28 39 37 34 37 32 27 27 23 33
21 20 14 14 11 9 9 9 10 11 14 16 19 19 19 18 19 20 21 23 19 20 6 20 22 36 45 28 14 4 14 19 22 17 17 29 22 31 34 39 28 29 23 23 22 25 23
22 16 17 12 12 10 10 8 9 12 14 17 19 18 16 17 19 19 19 20 18 10 4 17 28 33 40 32 14 12 11 19 13 17 12 17 18 20 24 28 27 19 15 16 18 21 21
19 21 16 15 13 11 9 8 9 11 14 17 18 17 14 12 14 16 17 16 10 8 17 20 34 33 35 41 7 6 10 20 20 13 10 14 13 20 19 23 22 21 22 8 7 10 15
24 18 17 15 13 11 9 7 9 11 14 17 17 15 12 12 15 15 14 9 5 7 14 24 27 24 23 35 21 8 11 19 21 14 16 12 9 15 18 26 24 29 28 9 6 10 13
20 19 17 15 13 11 9 7 8 11 14 16 16 13 11 11 14 13 10 4 10 10 15 21 23 20 22 27 24 29 10 6 8 12 14 16 18 21 16 21 17 27 29 19 6 8 5
23 19 17 15 13 11 7 6 8 11 12 13 13 11 9 10 11 10 5 4 6 9 14 13 16 17 27 29 26 33 10 9 1 6 8 8 10 14 20 18 16 19 21 20 13 5 6
19 18 18 16 14 9 7 7 7 11 11 11 11 5 8 8 9 5 2 5 7 8 9 10 13 18 18 23 20 23 23 13 5 6 2 7 9 10 20 24 28 22 20 22 17 18 5
21 19 18 17 13 10 7 7 7 10 9 9 8 2 9 5 3 6 4 7 7 6 8 8 10 13 16 19 14 14 20 20 19 17 5 2 11 22 21 16 18 32 23 24 17 17 17
21 20 18 16 15 11 9 6 7 10 7 7 5 4 6 2 0 1 5 6 7 6 5 8 8 13 17 14 8 12 15 16 19 17 6 6 3 5 7 8 11 21 24 21 19 13 10
22 21 19 18 16 12 11 6 6 9 6 4 3 2 5 3 1 2 6 5 7 7 4 8 7 10 14 12 13 8 16 16 16 14 3 6 8 6 5 4 13 17 20 21 18 15 16
24 23 22 19 16 15 12 8 7 9 6 3 2 2 2 3 2 3 4 6 7 8 7 8 5 11 15 15 16 12 18 16 13 10 10 8 7 7 5 10 2 6 13 14 17 17 14
25 24 23 20 18 18 13 11 10 9 7 5 3 0 3 2 3 2 5 4 7 7 10 9 12 15 17 16 17 23 20 15 11 10 14 9 6 10 9 7 6 7 8 10 13 14 15
25 25 25 22 21 20 15 14 13 10 8 6 6 4 2 4 2 3 5 6 7 11 8 7 14 19 17 16 21 22 24 24 22 17 15 8 9 8 3 2 4 10 14 15 13 13 13
29 30 27 25 24 22 17 18 14 12 9 7 8 7 5 3 4 4 8 9 10 11 15 16 15 15 15 17 19 20 17 16 14 12 11 9 9 6 7 2 5 2 2 8 11 8 5
28 27 28 27 25 21 22 20 16 15 12 10 10 8 7 4 5 7 8 8 9 11 13 13 11 13 15 16 19 14 7 5 4 9 10 11 4 6 5 7 7 4 1 3 5 10 10
24 26 27 25 24 25 24 22 19 15 15 12 11 8 9 6 2 8 7 8 9 9 9 7 12 10 12 13 10 9 8 6 1 4 5 9 9 9 6 5 2 10 2 13 7 4 3
26 25 27 27 26 26 24 22 20 18 17 12 10 8 9 8 7 7 7 8 7 8 9 10 11 9 8 10 10 10 7 7 5 5 2 1 5 12 12 9 2 11 10 5 5 3 6
28 28 28 28 27 26 24 23 22 20 19 16 10 10 8 9 9 10 3 9 11 10 10 14 11 5 7 6 7 8 8 7 6 5 3 5 5 3 5 6 3 8 7 4 7 3 4
26 26 27 28 28 27 26 25 23 21 20 18 13 14 7 16 12 12 12 12 14 17 18 16 11 11 5 5 5 7 9 8 12 6 7 2 8 8 6 9 12 13 10 6 7 6 5

GFSGBSN_700_spd_114.txt.gz
Wind_Speed
39 42 35 29 25 21 20 18 17 15 14 13 14 15 17 18 18 19 21 23 26 27 28 29 31 33 34 36 38 37 40 32 28 28 32 32 29 27 39 34 31 43 40 36 37 36 34
42 40 35 28 23 21 19 18 17 16 15 15 16 16 17 17 18 19 21 24 27 28 28 28 30 33 40 46 36 37 36 39 40 35 34 33 38 27 33 32 38 37 37 40 37 39 37
43 38 29 25 23 21 19 18 16 15 15 16 16 16 16 17 18 20 22 25 27 29 29 29 34 40 46 45 45 47 43 35 34 37 36 34 34 34 30 32 34 34 38 39 43 47 39
43 35 25 22 22 22 20 18 16 15 15 15 15 14 16 17 18 21 23 26 28 29 29 32 36 42 49 42 38 37 37 33 28 34 39 29 27 38 40 33 29 32 34 44 56 37 37
50 46 30 22 24 21 19 17 16 16 14 13 13 14 16 17 19 21 24 26 28 30 32 32 39 38 36 32 25 28 28 31 31 27 36 29 32 36 34 41 38 34 46 53 42 36 38
51 33 22 24 22 20 18 17 16 14 12 11 12 14 16 18 20 22 25 28 28 32 34 38 35 30 14 29 33 34 32 31 30 25 32 34 42 37 36 44 48 60 48 37 38 30 36
39 24 25 24 22 21 18 16 14 11 10 10 12 14 17 18 20 24 26 26 29 32 36 28 17 23 18 27 41 43 39 33 34 34 37 35 43 56 51 53 58 44 39 36 36 33 35
29 27 27 28 23 21 18 15 12 10 8 9 12 14 17 18 19 21 24 26 28 28 37 16 12 11 21 30 45 39 24 25 31 38 33 40 50 52 52 49 40 42 41 40 28 28 17
26 28 27 24 23 20 16 13 11 8 7 10 12 15 16 17 18 20 20 22 23 26 26 11 7 19 31 38 43 35 31 35 29 33 35 41 33 44 47 45 45 41 41 37 39 22 5
30 28 27 24 20 18 15 12 9 7 8 9 12 14 15 16 15 15 19 19 19 22 10 5 8 15 33 34 23 43 28 16 21 26 29 27 41 41 40 45 43 42 35 36 32 23 7
31 29 25 25 21 16 12 10 8 8 8 9 12 13 14 13 12 12 14 15 16 12 5 12 13 23 29 25 43 30 16 13 14 18 23 27 17 35 39 39 41 38 30 32 23 15 11
29 29 27 21 20 17 13 10 8 8 9 9 11 12 13 10 10 11 14 14 11 5 1 13 20 32 32 32 32 17 23 13 17 24 25 27 12 17 38 32 36 30 12 13 13 11 10
31 27 22 26 18 16 11 11 8 9 9 9 11 11 10 8 9 12 11 11 8 4 15 17 31 28 26 35 36 22 26 11 13 13 17 24 12 9 13 21 31 20 19 6 5 9 13
25 27 28 20 17 14 12 11 10 8 8 9 10 11 8 5 7 9 8 10 4 10 15 21 23 20 21 34 37 38 21 12 11 13 24 26 15 18 19 22 26 23 27 10 7 7 10
31 25 22 23 18 16 13 12 9 7 7 8 10 9 6 4 6 6 8 5 7 10 14 18 21 16 22 24 25 34 28 22 11 9 12 15 0 11 10 20 26 28 32 21 3 8 5
25 25 24 19 17 14 13 11 9 7 6 7 9 9 5 5 5 4 3 3 4 7 12 14 14 15 21 24 23 30 28 22 19 13 13 10 13 12 11 18 17 24 24 22 11 3 3
27 25 22 19 18 16 13 11 8 6 5 5 6 6 7 5 4 6 2 3 5 7 10 11 13 15 17 21 17 19 20 16 25 18 12 15 10 6 12 14 16 14 24 21 16 16 2
26 22 22 20 18 15 13 11 8 4 4 4 4 1 6 3 4 6 3 5 8 6 8 8 8 12 16 18 14 14 19 19 23 26 17 10 10 8 9 18 17 16 16 22 14 12 11
22 22 21 19 17 15 13 11 8 5 3 3 1 5 2 2 3 1 5 3 5 6 5 7 8 9 15 16 12 13 18 19 21 19 21 12 5 8 13 8 18 21 23 17 18 15 7
22 22 21 19 17 15 13 11 8 7 2 3 2 2 2 4 5 3 6 1 5 5 5 8 10 9 14 15 15 11 19 19 20 16 19 14 10 9 8 14 7 8 22 22 16 15 12
19 21 20 19 18 16 13 12 10 7 3 4 2 2 1 5 2 6 4 4 5 5 6 7 6 11 14 18 17 17 19 21 19 11 17 17 9 12 19 13 13 5 9 7 21 16 13
31 21 22 21 19 17 15 13 11 9 5 6 5 4 1 4 5 4 4 1 6 7 9 9 10 14 14 16 17 22 21 20 23 16 18 16 10 14 18 9 3 4 10 10 7 14 8
29 25 23 22 19 18 18 15 11 11 8 8 7 4 4 6 1 3 3 5 8 11 7 10 16 19 18 17 23 24 23 21 19 17 16 13 11 15 5 12 8 3 5 5 6 2 4
22 24 23 22 21 21 20 16 14 13 11 10 9 7 4 4 3 4 7 9 9 11 15 15 15 17 17 20 20 17 12 14 13 11 10 9 10 8 9 9 1 5 3 4 5 4 3
27 25 24 22 24 23 21 18 17 15 12 13 10 8 5 6 4 5 6 7 9 10 11 12 13 15 16 16 20 12 17 7 5 3 7 9 6 6 6 11 5 15 16 9 5 4 3
22 26 25 28 27 25 22 20 19 16 14 14 11 8 8 7 5 5 5 7 10 9 9 7 13 18 12 14 12 11 16 14 6 7 3 6 7 7 12 6 3 11 12 11 6 1 4
18 21 25 24 25 25 24 22 21 16 16 14 10 12 10 8 9 7 5 6 7 8 10 11 15 14 7 9 12 13 11 13 8 5 10 5 5 9 11 7 2 13 11 6 2 7 8
24 21 21 22 22 23 24 23 21 19 18 16 8 13 11 7 8 8 7 7 5 7 12 13 11 9 8 8 7 8 9 10 10 9 5 6 7 10 10 5 1 14 7 6 5 12 12
28 26 25 26 24 23 23 23 22 20 19 17 13 13 14 12 8 7 9 10 14 13 13 12 12 13 5 7 7 7 10 10 13 7 9 4 8 5 6 7 10 13 10 2 5 9 12

GFSGBSN_700_spd_117.txt.gz
Wind_Speed
42 36 33 32 34 33 29 27 23 20 18 17 16 15 15 15 15 15 17 19 20 20 22 25 27 28 28 31 29 34 37 30 28 29 29 27 28 28 36 37 34 47 43 42 43 38 43
41 39 39 38 38 35 30 27 24 20 18 17 17 16 16 16 15 16 17 19 20 21 23 25 28 30 32 33 35 32 33 37 36 36 36 35 34 29 40 36 31 38 44 46 42 47 44
47 42 40 43 39 34 29 27 23 21 19 17 17 17 17 15 15 16 17 19 21 22 23 27 27 32 34 33 34 32 34 32 33 32 35 36 37 34 38 42 41 37 39 42 50 55 49
40 43 44 43 39 30 25 23 21 20 19 18 17 17 16 15 15 16 17 19 21 22 23 25 28 33 34 32 32 30 30 31 32 36 36 32 35 40 35 37 46 32 31 46 65 53 48
46 46 45 46 45 36 28 25 23 22 19 18 16 15 14 13 15 16 17 18 22 22 21 24 28 30 27 28 30 24 25 35 35 32 32 26 28 39 38 36 40 46 54 58 58 42 43
49 49 46 51 42 40 29 21 22 20 18 17 15 13 12 13 15 16 17 18 22 21 18 25 24 29 23 30 24 27 29 36 33 32 34 30 29 36 46 43 42 51 49 39 38 35 38
56 46 46 39 36 24 23 24 21 19 17 16 13 12 11 12 15 16 17 18 18 21 23 22 19 24 18 17 25 25 32 31 31 34 37 34 32 40 44 53 46 41 32 40 41 36 31
49 45 36 35 27 24 25 22 21 19 17 14 12 11 11 12 14 16 18 19 19 19 19 15 10 10 19 33 41 35 19 27 39 33 34 31 45 45 45 48 46 44 43 37 36 31 38
45 34 32 29 27 27 25 24 21 19 15 12 10 9 10 12 14 15 15 16 18 17 15 7 13 14 24 31 41 29 31 25 24 30 26 30 45 34 38 45 45 48 43 36 33 30 17
32 32 32 32 29 27 26 22 20 16 13 9 7 8 10 12 12 14 12 14 15 14 2 4 8 12 25 26 14 32 30 25 26 21 19 19 29 36 42 48 40 41 45 36 39 36 14
33 31 29 29 29 24 25 22 17 14 10 7 7 9 10 11 11 11 11 11 11 8 4 6 7 19 17 20 31 33 26 23 21 24 22 33 39 40 32 37 31 41 40 34 38 35 15
32 31 31 29 28 27 21 23 18 12 6 8 7 10 10 10 8 8 9 8 6 4 3 6 17 18 21 24 30 34 20 12 20 21 24 31 32 31 21 25 29 37 41 30 22 15 3
33 34 34 30 27 28 25 18 12 14 10 12 9 9 9 8 6 7 7 7 3 4 10 14 21 19 16 27 27 35 27 14 16 18 23 32 40 30 15 15 25 36 31 9 2 2 4
35 33 30 31 30 24 22 20 16 13 11 9 7 7 6 6 6 3 3 1 4 4 9 15 14 16 19 28 27 34 32 28 14 19 27 18 33 29 9 4 17 31 27 9 2 5 4
30 31 31 29 24 24 21 17 16 15 12 7 7 6 6 7 6 0 1 7 4 6 10 12 14 15 21 23 25 23 31 21 29 31 18 16 18 16 17 9 7 24 23 18 1 3 3
35 31 27 26 26 21 20 19 17 14 9 7 6 5 9 6 2 1 3 6 2 4 8 8 12 13 19 26 26 23 26 20 34 34 16 15 17 25 11 4 13 21 26 13 4 1 4
30 27 26 26 23 22 22 18 14 12 8 7 6 3 2 3 2 2 8 3 4 4 6 7 9 12 15 23 24 18 20 18 29 35 31 18 10 18 16 3 6 13 19 7 5 7 1
32 28 25 25 25 26 19 16 14 11 9 7 5 4 1 3 6 8 4 5 5 1 4 5 7 9 12 19 19 16 18 18 25 25 30 24 7 20 16 12 5 7 20 17 8 5 4
25 30 25 23 20 23 18 16 14 11 10 8 6 3 1 5 8 3 2 0 3 2 2 4 6 10 10 15 14 19 19 22 22 24 23 29 12 12 17 11 8 14 10 20 18 12 5
27 23 24 23 24 22 19 16 13 12 10 8 6 6 5 8 6 6 3 2 4 6 5 6 7 10 11 13 9 18 24 21 26 17 18 21 12 9 6 14 21 20 9 15 16 11 6
21 23 25 25 23 20 18 15 13 12 10 7 6 6 7 3 8 10 8 4 3 3 6 4 7 10 12 16 20 20 25 24 22 6 10 16 17 17 16 17 18 4 8 4 10 5 9
23 22 21 20 20 20 17 15 13 11 10 10 8 9 12 7 0 6 2 3 2 4 9 6 8 14 16 12 17 28 28 20 23 14 13 13 15 20 14 13 4 11 0 8 5 5 6
25 21 22 22 22 20 17 15 15 12 11 10 8 8 10 9 7 3 3 3 4 8 5 9 15 15 15 16 23 24 20 12 19 21 14 9 14 18 7 14 9 12 11 7 18 10 1
30 25 27 20 21 20 18 17 14 13 13 9 7 8 7 11 10 3 4 6 6 6 12 10 10 12 17 20 17 10 7 10 12 14 6 8 10 9 10 19 3 11 20 20 21 24 23
23 27 27 24 23 22 20 17 16 16 12 11 10 10 9 13 12 5 3 4 6 7 7 6 10 15 19 13 15 11 11 5 7 11 5 7 6 6 6 14 3 22 16 14 16 18 15
24 27 21 24 23 22 20 18 18 16 14 12 9 8 10 9 12 11 8 6 7 5 4 7 10 14 11 11 14 7 5 15 7 9 12 6 4 4 9 4 4 17 10 4 6 15 13
17 24 22 22 23 22 20 20 19 18 15 14 11 10 10 6 11 12 12 7 8 8 10 10 11 10 9 10 11 7 6 11 9 14 12 15 8 11 9 2 3 19 15 4 5 7 15
16 18 21 22 20 20 23 22 20 18 17 15 14 12 12 9 10 13 8 8 6 7 10 11 10 4 8 7 5 6 6 11 12 12 15 10 6 8 8 7 4 19 13 11 6 5 10
19 18 17 17 20 18 20 21 21 20 18 17 16 12 13 12 8 10 8 8 9 7 10 8 8 9 4 4 5 5 10 7 14 9 18 7 12 5 7 3 11 14 7 2 5 9 10

GFSGBSN_700_spd_123.txt.gz
Wind_Speed
42 38 36 33 30 30 29 31 32 32 28 27 25 24 24 23 22 22 22 22 21 21 20 18 17 16 16 17 19 22 23 25 26 26 26 25 25 28 33 34 34 41 46 45 48 49 50
42 45 44 37 34 37 33 30 34 35 31 31 30 28 26 25 24 24 23 22 22 22 20 18 19 18 18 20 20 22 23 25 25 24 25 25 26 27 35 39 38 44 46 49 50 52 51
49 47 49 39 36 34 36 34 32 31 33 31 33 30 29 27 26 26 23 22 22 22 21 20 20 19 21 21 21 24 21 23 23 25 24 21 23 26 28 35 32 39 49 52 56 54 51
54 51 52 44 38 34 36 34 31 33 30 29 32 32 31 28 28 26 23 21 22 22 22 21 20 20 22 20 18 19 23 22 22 23 24 23 23 26 26 28 35 39 41 50 59 46 33
48 52 55 48 44 44 40 38 34 37 34 32 30 32 29 29 28 25 22 21 22 23 21 21 20 19 20 12 12 16 20 21 23 20 18 22 25 24 25 27 34 28 35 42 58 43 41
66 62 63 52 45 49 40 39 41 40 35 33 32 29 31 30 27 25 22 21 21 21 20 20 20 12 11 12 13 18 21 18 21 22 20 19 23 24 25 20 28 29 29 38 41 53 37
59 62 65 57 54 53 41 45 41 34 31 32 29 30 31 31 26 23 22 20 19 19 19 18 17 15 13 13 14 20 15 23 23 22 21 18 20 25 23 18 22 29 32 37 40 40 55
61 63 62 58 61 60 47 44 43 38 32 30 27 30 31 28 24 20 19 18 17 16 18 17 14 9 11 16 17 12 23 25 23 20 15 18 25 15 19 22 23 29 37 42 42 45 44
59 62 60 64 60 51 50 48 44 36 34 26 28 31 28 26 22 19 17 16 14 16 14 13 11 8 10 16 19 16 23 25 23 16 13 19 21 18 20 25 28 38 39 42 44 50 43
61 54 62 64 59 43 50 47 38 33 31 30 32 30 27 25 21 18 14 12 15 12 8 9 6 3 9 14 5 15 21 21 20 16 19 13 20 25 28 32 29 41 33 38 43 40 24
54 57 55 60 58 49 51 46 37 34 30 32 29 27 26 22 18 16 14 12 11 6 1 5 4 5 6 11 17 10 14 17 14 14 17 19 24 23 24 24 27 41 32 31 24 23 28
53 58 62 50 56 51 51 39 34 31 32 31 28 26 23 20 17 14 11 8 8 6 5 8 5 7 10 13 10 8 10 18 9 21 17 27 17 18 18 26 21 19 20 17 15 20 11
60 64 66 55 46 52 37 36 33 34 33 30 27 26 21 17 16 10 8 9 6 6 6 6 7 7 8 11 4 8 11 20 23 18 34 24 21 14 17 28 26 12 6 4 4 3 6
69 61 59 56 52 39 36 36 36 36 31 29 29 23 19 17 12 12 11 11 7 7 7 4 5 6 3 9 3 10 13 16 21 24 24 18 20 15 16 24 23 17 12 6 4 3 6
41 46 39 34 38 38 37 37 37 33 32 29 25 20 17 14 13 14 14 12 5 10 7 5 5 2 3 7 5 10 10 6 14 22 22 14 17 31 17 27 15 3 15 14 12 22 6
23 24 26 33 37 40 36 32 32 33 28 26 21 17 12 14 16 15 16 12 9 9 5 4 1 0 5 11 7 10 6 7 13 20 20 21 25 11 28 9 11 12 4 3 9 5 4
22 29 38 38 31 33 36 35 32 30 27 24 20 14 17 17 15 16 16 13 12 7 8 4 0 1 7 11 13 11 4 12 11 24 24 15 12 24 20 12 16 15 14 7 8 7 4
29 36 33 35 36 34 34 34 32 28 26 22 22 18 18 16 18 18 16 12 10 9 6 4 3 3 6 9 10 9 6 10 17 22 16 11 10 17 19 7 14 10 6 12 6 6 7
29 31 36 30 30 33 33 29 27 25 25 22 22 20 19 20 18 20 17 14 12 10 5 5 6 6 8 9 9 6 14 19 16 12 12 16 8 12 13 10 13 24 15 16 10 10 3
27 32 31 31 31 32 30 29 29 28 25 25 24 16 19 22 20 21 17 15 13 8 7 6 4 7 8 9 9 10 22 13 7 4 10 13 11 10 9 24 29 25 12 11 4 4 6
28 28 21 25 27 30 29 28 27 27 24 24 21 15 18 25 23 20 17 15 14 14 12 10 6 9 14 13 20 4 16 14 2 6 11 18 12 13 19 7 24 10 9 6 12 12 3
31 27 28 30 28 30 25 27 27 24 25 24 20 15 20 19 18 19 18 15 15 13 12 10 11 12 13 15 13 17 15 8 10 14 16 13 9 18 1 13 8 32 25 13 9 14 11
33 34 29 30 24 26 30 25 27 23 24 21 17 13 18 21 18 17 17 20 15 13 9 11 11 10 8 8 11 9 8 1 9 15 14 7 12 19 7 18 4 10 22 25 24 12 5
34 32 31 28 26 27 33 24 23 23 22 19 16 16 17 20 18 18 18 14 12 9 8 9 8 8 7 8 8 2 3 2 5 9 13 8 9 8 9 10 4 7 17 9 17 21 19
32 35 30 28 27 27 27 24 23 22 21 20 17 18 17 23 20 18 17 13 10 7 9 8 6 7 8 4 1 4 2 4 3 6 13 8 6 5 6 6 2 11 17 9 11 21 19
31 27 30 27 28 28 25 25 23 22 20 19 17 17 19 20 21 17 16 13 10 9 8 6 7 6 4 2 1 2 2 4 4 2 5 7 6 3 6 3 2 16 8 1 4 12 16
31 33 35 27 35 26 23 23 23 22 20 18 17 17 17 19 18 18 14 10 7 6 7 7 5 5 2 2 3 3 1 2 3 8 11 2 4 8 7 1 2 17 11 1 3 5 12
31 31 37 24 33 23 22 23 23 23 21 17 16 15 15 16 12 16 13 9 6 5 3 2 1 3 3 3 3 3 2 2 2 7 6 9 6 5 5 3 3 14 6 2 1 6 12
22 28 34 29 33 20 20 22 21 20 16 15 15 15 14 13 9 11 13 11 9 4 2 1 1 2 3 3 2 2 2 1 1 1 5 2 6 5 2 3 9 11 8 4 6 11 15